FW8896 Weather Reports


Display with metric or nautical units.
time (UTC)temp
F
wind
direction
speed
MPH
gust
MPH
rain 1hr
in
rain 24hr
in
rain mn
in
humidity
%
barometer
mb
20260506043716 64 0 2.0 7.0 0.00 0.00 0.00 71 1012.1
20260506043213 64 25 2.0 7.0 0.00 0.00 0.00 71 1012.3
20260506042713 64 302 1.0 5.0 0.00 0.00 0.00 70 1012.6
20260506042213 65 342 1.0 6.0 0.00 0.00 0.00 70 1012.4
20260506041711 65 8 2.0 7.0 0.00 0.00 0.00 69 1012.4
20260506041212 65 17 2.0 7.0 0.00 0.00 0.00 69 1012.5
20260506040712 65 32 2.0 6.0 0.00 0.00 0.00 70 1012.3
20260506040212 65 11 3.0 6.0 0.00 0.00 0.00 70 1012.2
20260506035712 65 35 3.0 6.0 0.00 0.00 0.00 70 1012.3
20260506035211 65 37 3.0 6.0 0.00 0.00 0.00 68 1012.3
20260506034712 65 36 3.0 6.0 0.00 0.00 0.00 69 1012.4
20260506034241 66 36 3.0 6.0 0.00 0.00 0.00 68 1012.2
20260506034231 65 33 3.0 6.0 0.00 0.00 0.00 67 1012.2
20260506033454 66 38 2.0 6.0 0.00 0.00 0.00 67 1012.2
20260506032709 66 42 2.0 5.0 0.00 0.00 0.00 69 1012.4
20260506032209 66 33 2.0 5.0 0.00 0.00 0.00 65 1012.5
20260506031953 66 15 2.0 4.0 0.00 0.00 0.00 64 1012.4
20260506031209 67 36 2.0 4.0 0.00 0.00 0.00 64 1012.3
20260506030708 67 22 2.0 4.0 0.00 0.00 0.00 64 1012.4
20260506030209 67 35 2.0 4.0 0.00 0.00 0.00 64 1012.3
20260506025710 67 23 2.0 3.0 0.00 0.00 0.00 65 1012.3
20260506025209 67 165 2.0 3.0 0.00 0.00 0.00 63 1012.5
20260506024709 67 41 2.0 4.0 0.00 0.00 0.00 63 1012.6
20260506024210 67 30 2.0 4.0 0.00 0.00 0.00 62 1012.6
20260506023707 67 35 2.0 4.0 0.00 0.00 0.00 62 1012.5
20260506023207 67 0 2.0 4.0 0.00 0.00 0.00 64 1012.5
20260506022950 66 36 3.0 4.0 0.00 0.00 0.00 61 1012.6
20260506022207 66 349 3.0 4.0 0.00 0.00 0.00 65 1012.4
20260506021707 66 35 3.0 4.0 0.00 0.00 0.00 63 1012.3
20260506021549 66 41 3.0 5.0 0.00 0.00 0.00 63 1012.3
20260506021249 66 38 3.0 5.0 0.00 0.00 0.00 63 1012.3
20260506015706 66 28 3.0 5.0 0.00 0.00 0.00 65 1012.0
20260506015208 67 51 2.0 4.0 0.00 0.00 0.00 68 1012.0
20260506014707 67 39 3.0 4.0 0.00 0.00 0.00 64 1012.2
20260506014207 67 30 3.0 4.0 0.00 0.00 0.00 63 1012.3
20260506013707 67 32 3.0 4.0 0.00 0.00 0.00 64 1012.2
20260506013206 67 24 3.0 5.0 0.00 0.00 0.00 65 1012.2
20260506012948 67 34 3.0 5.0 0.00 0.00 0.00 66 1012.2
20260506012205 67 35 3.0 4.0 0.00 0.00 0.00 65 1012.1
20260506011705 67 35 3.0 4.0 0.00 0.00 0.00 65 1012.1
20260506011206 67 31 3.0 5.0 0.00 0.00 0.00 63 1012.1
20260506010738 67 32 4.0 5.0 0.00 0.00 0.00 64 1011.9
20260506010727 67 37 4.0 5.0 0.00 0.00 0.00 63 1012.1
20260506005728 68 41 4.0 5.0 0.00 0.00 0.00 65 1011.9
20260506004948 69 33 2.0 4.0 0.00 0.00 0.00 61 1012.1
20260506004207 69 33 2.0 3.0 0.00 0.00 0.00 60 1012.1
20260506003704 70 26 1.0 3.0 0.00 0.00 0.00 59 1012.2
20260506003203 70 359 1.0 2.0 0.00 0.00 0.00 61 1012.3
20260506002702 71 36 1.0 2.0 0.00 0.00 0.00 59 1012.3
20260506002203 71 10 0.0 2.0 0.00 0.00 0.00 56 1012.4
20260506001702 72 352 0.0 2.0 0.00 0.00 0.00 55 1012.4
20260506001204 72 7 0.0 1.0 0.00 0.00 0.00 54 1012.4
20260506000704 72 354 0.0 1.0 0.00 0.00 0.00 54 1012.4
20260506000205 73 0 0.0 1.0 0.00 0.00 0.00 53 1012.3
20260505235702 73 0 0.0 1.0 0.00 0.00 0.00 53 1012.3
20260505235203 73 303 0.0 1.0 0.00 0.00 0.00 52 1012.3
20260505234702 74 0 0.0 1.0 0.00 0.00 0.00 52 1012.2
20260505234202 74 0 0.0 2.0 0.00 0.00 0.00 52 1012.2
20260505233702 74 0 0.0 2.0 0.00 0.00 0.00 51 1012.3
20260505233203 74 10 0.0 2.0 0.00 0.00 0.00 50 1012.5
20260505232703 74 327 0.0 2.0 0.00 0.00 0.00 51 1012.5
20260505232205 74 0 0.0 2.0 0.00 0.00 0.00 51 1012.4
20260505231702 75 0 0.0 2.0 0.00 0.00 0.00 51 1012.4
20260505231202 75 0 0.0 1.0 0.00 0.00 0.00 50 1012.5
20260505230702 75 0 0.0 3.0 0.00 0.00 0.00 49 1012.4
20260505230202 75 0 0.0 3.0 0.00 0.00 0.00 49 1012.3
20260505225944 75 332 0.0 3.0 0.00 0.00 0.00 50 1012.1
20260505225202 75 0 0.0 2.0 0.00 0.00 0.00 49 1012.1
20260505224703 76 288 0.0 2.0 0.00 0.00 0.00 50 1012.1
20260505224202 76 90 0.0 2.0 0.00 0.00 0.00 49 1011.9
20260505223703 76 0 0.0 2.0 0.00 0.00 0.00 48 1011.9
20260505223202 76 0 0.0 2.0 0.00 0.00 0.00 48 1012.0
20260505222701 76 0 0.0 3.0 0.00 0.00 0.00 47 1012.1
20260505222201 76 0 0.0 3.0 0.00 0.00 0.00 47 1012.1
20260505221700 76 0 0.0 2.0 0.00 0.00 0.00 48 1012.0
20260505221202 76 21 0.0 2.0 0.00 0.00 0.00 48 1012.1
20260505220700 77 0 0.0 2.0 0.00 0.00 0.00 49 1012.0
20260505220201 77 0 0.0 2.0 0.00 0.00 0.00 48 1012.1
20260505215701 76 0 0.0 2.0 0.00 0.00 0.00 47 1011.9
20260505215202 76 48 0.0 2.0 0.00 0.00 0.00 47 1011.8
20260505214944 77 0 1.0 4.0 0.00 0.00 0.00 46 1011.9
20260505214201 78 0 1.0 4.0 0.00 0.00 0.00 46 1011.9
20260505213701 79 81 1.0 2.0 0.00 0.00 0.00 46 1011.8
20260505213201 79 134 0.0 3.0 0.00 0.00 0.00 46 1012.0
20260505212703 79 300 1.0 5.0 0.00 0.00 0.00 46 1012.0
20260505212202 79 0 1.0 5.0 0.00 0.00 0.00 46 1012.1
20260505211701 79 38 1.0 2.0 0.00 0.00 0.00 46 1012.1
20260505211201 79 333 0.0 2.0 0.00 0.00 0.00 47 1012.2
20260505210944 79 0 0.0 2.0 0.00 0.00 0.00 46 1012.2
20260505210202 79 0 0.0 2.0 0.00 0.00 0.00 46 1012.2
20260505205701 79 25 1.0 3.0 0.00 0.00 0.00 46 1012.3
20260505205202 80 83 0.0 3.0 0.00 0.00 0.00 45 1012.2
20260505204701 79 0 0.0 4.0 0.00 0.00 0.00 44 1012.2
20260505204201 79 0 1.0 5.0 0.00 0.00 0.00 46 1012.4
20260505203701 80 217 1.0 5.0 0.00 0.00 0.00 45 1012.6
20260505203447 80 0 1.0 3.0 0.00 0.00 0.00 46 1012.6
20260505202945 80 342 0.0 3.0 0.00 0.00 0.00 46 1012.6
20260505202202 79 0 1.0 4.0 0.00 0.00 0.00 47 1012.6
20260505201701 79 18 1.0 5.0 0.00 0.00 0.00 48 1012.8
20260505201200 79 0 0.0 5.0 0.00 0.00 0.00 46 1012.8
20260505200700 78 0 1.0 4.0 0.00 0.00 0.00 47 1012.8
20260505200203 78 122 1.0 4.0 0.00 0.00 0.00 53 1012.9
20260505195700 78 61 0.0 4.0 0.00 0.00 0.00 48 1012.9
20260505195443 77 0 0.0 2.0 0.00 0.00 0.00 52 1012.9
20260505194944 76 0 1.0 4.0 0.00 0.00 0.00 50 1013.1
20260505194202 76 0 1.0 4.0 0.00 0.00 0.00 49 1013.2
20260505193700 76 51 1.0 3.0 0.00 0.00 0.00 49 1013.2
20260505193202 75 0 1.0 4.0 0.00 0.00 0.00 50 1013.3
20260505192702 75 0 1.0 4.0 0.00 0.00 0.00 51 1013.4
20260505192446 76 51 1.0 4.0 0.00 0.00 0.00 50 1013.5
20260505191700 76 201 1.0 3.0 0.00 0.00 0.00 51 1013.4
20260505191201 76 74 1.0 3.0 0.00 0.00 0.00 51 1013.3
20260505190945 76 68 1.0 4.0 0.00 0.00 0.00 51 1013.4
20260505190224 76 78 1.0 4.0 0.00 0.00 0.00 50 1013.4
20260505185203 76 53 1.0 4.0 0.00 0.00 0.00 50 1013.6
20260505184702 76 280 1.0 4.0 0.00 0.00 0.00 50 1013.8
20260505184202 75 0 1.0 4.0 0.00 0.00 0.00 50 1013.8
20260505183701 75 220 1.0 5.0 0.00 0.00 0.00 50 1013.9
20260505183443 76 66 1.0 5.0 0.00 0.00 0.00 51 1013.8
20260505182946 76 131 1.0 5.0 0.00 0.00 0.00 51 1013.9
20260505182443 76 84 0.0 2.0 0.00 0.00 0.00 50 1014.0
20260505181702 76 0 1.0 4.0 0.00 0.00 0.00 51 1014.0
20260505181444 76 0 1.0 4.0 0.00 0.00 0.00 53 1014.1
20260505180947 76 13 1.0 4.0 0.00 0.00 0.00 51 1014.1
20260505180204 76 0 1.0 4.0 0.00 0.00 0.00 49 1014.3
20260505175701 76 105 1.0 4.0 0.00 0.00 0.00 51 1014.4
20260505175203 75 0 1.0 5.0 0.00 0.00 0.00 51 1014.4
20260505174702 74 0 1.0 5.0 0.00 0.00 0.00 50 1014.5
20260505174201 74 172 1.0 4.0 0.00 0.00 0.00 53 1014.5
20260505173704 75 0 1.0 4.0 0.00 0.00 0.00 52 1014.7
20260505173201 76 312 1.0 3.0 0.00 0.00 0.00 54 1014.9
20260505172702 75 0 1.0 5.0 0.00 0.00 0.00 52 1014.8
20260505172201 75 349 1.0 5.0 0.00 0.00 0.00 53 1014.7
20260505171701 75 0 1.0 3.0 0.00 0.00 0.00 55 1014.8
20260505171201 74 267 1.0 5.0 0.00 0.00 0.00 58 1014.8
20260505170945 75 86 1.0 5.0 0.00 0.00 0.00 55 1014.8
20260505170201 75 0 1.0 4.0 0.00 0.00 0.00 53 1014.9
20260505165701 75 0 1.0 4.0 0.00 0.00 0.00 52 1014.9
20260505165201 74 0 1.0 6.0 0.00 0.00 0.00 53 1014.8
20260505164701 74 0 1.0 6.0 0.00 0.00 0.00 56 1014.9
20260505164201 74 67 1.0 4.0 0.00 0.00 0.00 55 1014.9
20260505163701 74 0 1.0 4.0 0.00 0.00 0.00 54 1014.9
20260505163201 74 0 1.0 4.0 0.00 0.00 0.00 54 1014.8
20260505162701 73 0 1.0 4.0 0.00 0.00 0.00 55 1014.8
20260505162201 73 263 1.0 4.0 0.00 0.00 0.00 55 1014.9
20260505161701 73 63 1.0 4.0 0.00 0.00 0.00 56 1014.9
20260505161202 73 99 1.0 4.0 0.00 0.00 0.00 56 1014.9
20260505160701 73 358 1.0 4.0 0.00 0.00 0.00 54 1014.9
20260505160202 73 101 1.0 4.0 0.00 0.00 0.00 53 1015.0
20260505153159 72 187 1.0 6.0 0.00 0.00 0.00 53 1015.0
20260505152659 72 80 1.0 6.0 0.00 0.00 0.00 53 1015.2
20260505152200 72 286 1.0 6.0 0.00 0.00 0.00 56 1015.2
20260505151656 72 148 1.0 4.0 0.00 0.00 0.00 56 1015.1
20260505151158 71 77 1.0 4.0 0.00 0.00 0.00 58 1015.1
20260505150658 71 62 1.0 4.0 0.00 0.00 0.00 58 1015.0
20260505150157 70 0 1.0 3.0 0.00 0.00 0.00 61 1015.0
20260505140652 63 22 1.0 6.0 0.00 0.00 0.00 79 1014.8
20260505140435 62 298 1.0 6.0 0.00 0.00 0.00 80 1014.8
20260505130150 51 10 1.0 2.0 0.00 0.00 0.00 99 1014.6
20260505124650 49 344 1.0 3.0 0.00 0.00 0.00 100 1014.5
20260505124148 49 25 1.0 2.0 0.00 0.00 0.00 100 1014.5
20260505123647 49 26 2.0 2.0 0.00 0.00 0.00 100 1014.4
20260505123144 48 43 1.0 2.0 0.00 0.00 0.00 100 1014.3
20260505122644 48 6 2.0 2.0 0.00 0.00 0.00 100 1014.3
20260505122428 47 349 2.0 2.0 0.00 0.00 0.00 100 1014.1
20260505121645 47 31 2.0 2.0 0.00 0.00 0.00 99 1014.1
20260505121144 47 24 2.0 2.0 0.00 0.00 0.00 99 1014.1
20260505120930 46 351 2.0 2.0 0.00 0.00 0.00 99 1014.1
20260505120145 46 34 1.0 2.0 0.00 0.00 0.00 99 1014.1
20260505115646 46 2 1.0 2.0 0.00 0.00 0.00 99 1014.1
20260505115145 46 32 1.0 2.0 0.00 0.00 0.00 99 1014.2
20260505114645 45 211 1.0 2.0 0.00 0.00 0.00 99 1014.1
20260505114146 45 12 1.0 2.0 0.00 0.00 0.00 99 1014.0
20260505113645 45 47 1.0 2.0 0.00 0.00 0.00 99 1013.8
20260505113143 45 33 1.0 2.0 0.00 0.00 0.00 99 1013.5
20260505112643 44 32 1.0 2.0 0.00 0.00 0.00 99 1013.4
20260505112142 44 45 1.0 2.0 0.00 0.00 0.00 99 1013.5
20260505111642 44 47 1.0 2.0 0.00 0.00 0.00 99 1013.4
20260505111142 44 219 1.0 2.0 0.00 0.00 0.00 99 1013.5
20260505110644 44 230 1.0 2.0 0.00 0.00 0.00 99 1013.5
20260505110143 44 50 1.0 2.0 0.00 0.00 0.00 99 1013.5
20260505102141 45 52 1.0 2.0 0.00 0.00 0.00 98 1013.4
20260505101641 45 40 1.0 2.0 0.00 0.00 0.00 99 1013.3
20260505101142 45 36 1.0 2.0 0.00 0.00 0.00 99 1013.4
20260505100643 45 229 1.0 2.0 0.00 0.00 0.00 99 1013.5
20260505100143 45 43 1.0 2.0 0.00 0.00 0.00 99 1013.5
20260505095645 45 71 1.0 2.0 0.00 0.00 0.00 98 1013.6
20260505095143 45 37 1.0 2.0 0.00 0.00 0.00 98 1013.6
20260505094643 45 35 1.0 2.0 0.00 0.00 0.00 98 1013.6
20260505094139 45 0 1.0 2.0 0.00 0.00 0.00 98 1013.5
20260505093714 45 24 1.0 2.0 0.00 0.00 0.00 98 1013.4
20260505093701 45 220 1.0 2.0 0.00 0.00 0.00 98 1013.4
20260505092638 45 43 1.0 2.0 0.00 0.00 0.00 98 1013.3
20260505092139 45 240 1.0 2.0 0.00 0.00 0.00 98 1013.3
20260505091640 45 219 1.0 2.0 0.00 0.00 0.00 98 1013.4
20260505091207 45 57 1.0 2.0 0.00 0.00 0.00 98 1013.5
20260505091157 45 37 1.0 2.0 0.00 0.00 0.00 98 1013.4
20260505090138 45 228 1.0 2.0 0.00 0.00 0.00 98 1013.6
20260505085636 46 42 1.0 2.0 0.00 0.00 0.00 98 1013.6
20260505085137 46 15 1.0 2.0 0.00 0.00 0.00 98 1013.6
20260505084637 46 33 1.0 2.0 0.00 0.00 0.00 98 1013.6
20260505084134 46 24 1.0 2.0 0.00 0.00 0.00 98 1013.8
20260505083917 46 27 1.0 2.0 0.00 0.00 0.00 98 1013.9
20260505083135 46 208 1.0 2.0 0.00 0.00 0.00 98 1013.9
20260505082633 46 38 1.0 2.0 0.00 0.00 0.00 98 1013.8
20260505082134 46 0 1.0 2.0 0.00 0.00 0.00 97 1013.8
20260505081630 46 225 1.0 2.0 0.00 0.00 0.00 97 1013.8
20260505081131 46 26 1.0 2.0 0.00 0.00 0.00 97 1013.8
20260505080630 46 224 1.0 2.0 0.00 0.00 0.00 97 1013.6
20260505080130 46 32 1.0 2.0 0.00 0.00 0.00 97 1013.6
20260505075630 47 344 1.0 2.0 0.00 0.00 0.00 97 1013.6
20260505075129 47 217 1.0 2.0 0.00 0.00 0.00 97 1013.6
20260505074912 47 30 1.0 2.0 0.00 0.00 0.00 97 1013.6
20260505074131 47 18 1.0 2.0 0.00 0.00 0.00 97 1013.6
20260505073630 47 24 1.0 2.0 0.00 0.00 0.00 97 1013.6
20260505073130 47 20 1.0 2.0 0.00 0.00 0.00 97 1013.6
20260505072630 47 26 1.0 2.0 0.00 0.00 0.00 97 1013.6
20260505072129 47 10 1.0 2.0 0.00 0.00 0.00 97 1013.6
20260505071628 47 19 1.0 2.0 0.00 0.00 0.00 97 1013.6
20260505071130 47 7 1.0 2.0 0.00 0.00 0.00 97 1013.6
20260505070629 47 0 1.0 2.0 0.00 0.00 0.00 97 1013.6
20260505070130 47 19 1.0 2.0 0.00 0.00 0.00 97 1013.6
20260505065630 48 7 1.0 2.0 0.00 0.00 0.00 96 1013.6
20260505065130 48 350 1.0 2.0 0.00 0.00 0.00 96 1013.6
20260505064629 48 0 1.0 2.0 0.00 0.00 0.00 96 1013.5
20260505064412 48 19 1.0 2.0 0.00 0.00 0.00 96 1013.6
20260505063915 48 342 1.0 2.0 0.00 0.00 0.00 96 1013.6
20260505063132 48 26 1.0 2.0 0.00 0.00 0.00 96 1013.6
20260505062631 48 359 1.0 3.0 0.00 0.00 0.00 96 1013.8
20260505062129 48 8 1.0 3.0 0.00 0.00 0.00 96 1013.8
20260505061914 48 10 1.0 2.0 0.00 0.00 0.00 96 1013.8
20260505061129 48 247 1.0 2.0 0.00 0.00 0.00 96 1013.8
20260505060629 49 31 1.0 2.0 0.00 0.00 0.00 96 1013.8
20260505060130 49 358 1.0 2.0 0.00 0.00 0.00 95 1013.8
20260505055632 49 7 1.0 2.0 0.00 0.00 0.00 95 1013.8
20260505055130 49 4 1.0 2.0 0.00 0.00 0.00 95 1013.8
20260505054630 49 28 1.0 2.0 0.00 0.00 0.00 94 1013.8
20260505054411 49 6 1.0 2.0 0.00 0.00 0.00 94 1013.8
20260505053703 49 35 1.0 2.0 0.00 0.00 0.00 94 1013.9
20260505053651 49 24 1.0 2.0 0.00 0.00 0.00 94 1013.8
20260505052629 49 16 1.0 2.0 0.00 0.00 0.00 94 1013.9
20260505052129 49 21 1.0 2.0 0.00 0.00 0.00 93 1013.9
20260505051913 50 30 1.0 2.0 0.00 0.00 0.00 93 1013.9
20260505051129 50 11 1.0 2.0 0.00 0.00 0.00 93 1013.9
20260505050912 50 25 1.0 2.0 0.00 0.00 0.00 93 1013.9
20260505050415 50 23 2.0 2.0 0.00 0.00 0.00 93 1013.9